When you browse on this site, cookies collect data to enhance your experience and personalize the content and advertising you see.
Visit our Privacy Policy to learn more. By continuing to use the site, you agree to this use of cookies and data.
  • En España
  • Lista de países
  • Para 7 días
  • Temperatura del agua
  • Mapa Satelital
  • El tiempo en el mapa
  • Informadores
  • user-avatar
    Iniciar sesión

    Tiempo cada hora Babni

    Hoy, 17 Julio, Miércoles

    Tiempo Temperatura Precipitaciones Viento Presión Humedad
    00:00 +11°C° 0 mm 1 mps 738 mmHg 92%
    01:00 +11°C° 0 mm 1 mps 738 mmHg 92%
    02:00 +11°C° 0 mm 1 mps 738 mmHg 92%
    03:00 +12°C° 0 mm 1 mps 738 mmHg 91%
    04:00 +12°C° 0 mm 2 mps 738 mmHg 90%
    05:00 +12°C° 0 mm 2 mps 738 mmHg 89%
    06:00 +14°C° 0 mm 2 mps 738 mmHg 87%
    07:00 +15°C° 0 mm 1 mps 737 mmHg 84%
    08:00 +15°C° 0 mm 1 mps 737 mmHg 80%
    09:00 +16°C° 0.2 mm 1 mps 737 mmHg 79%
    10:00 +18°C° 0.2 mm 1 mps 737 mmHg 77%
    11:00 +19°C° 0.2 mm 1 mps 737 mmHg 75%
    12:00 +20°C° 0.1 mm 1 mps 737 mmHg 72%
    13:00 +19°C° 0.1 mm 2 mps 737 mmHg 68%
    14:00 +20°C° 0.1 mm 2 mps 736 mmHg 64%
    15:00 +21°C° 0.1 mm 1 mps 736 mmHg 67%
    16:00 +20°C° 0.1 mm 1 mps 736 mmHg 69%
    17:00 +18°C° 0.1 mm 0 mps 736 mmHg 72%
    18:00 +19°C° 0.3 mm 1 mps 736 mmHg 76%
    19:00 +18°C° 0.3 mm 1 mps 736 mmHg 81%
    20:00 +15°C° 0.3 mm 1 mps 736 mmHg 85%
    21:00 +15°C° 0.1 mm 1 mps 736 mmHg 86%
    22:00 +15°C° 0.1 mm 1 mps 736 mmHg 86%
    23:00 +15°C° 0.1 mm 1 mps 736 mmHg 86%

    Mañana, 18 Julio, Jueves

    Tiempo Temperatura Precipitaciones Viento Presión Humedad
    00:00 +15°C° 0.2 mm 1 mps 736 mmHg 88%
    01:00 +14°C° 0.2 mm 1 mps 736 mmHg 90%
    02:00 +14°C° 0.2 mm 1 mps 736 mmHg 92%
    03:00 +14°C° 0.2 mm 1 mps 735 mmHg 93%
    04:00 +14°C° 0.2 mm 1 mps 735 mmHg 95%
    05:00 +14°C° 0.2 mm 1 mps 735 mmHg 96%
    06:00 +14°C° 0.5 mm 1 mps 735 mmHg 95%
    07:00 +15°C° 0.5 mm 1 mps 735 mmHg 95%
    08:00 +15°C° 0.5 mm 1 mps 735 mmHg 94%
    09:00 +15°C° 0.4 mm 2 mps 735 mmHg 95%
    10:00 +15°C° 0.4 mm 2 mps 735 mmHg 95%
    11:00 +14°C° 0.4 mm 3 mps 735 mmHg 96%
    12:00 +14°C° 0.2 mm 3 mps 735 mmHg 95%
    13:00 +14°C° 0.2 mm 3 mps 735 mmHg 94%
    14:00 +16°C° 0.2 mm 3 mps 735 mmHg 94%
    15:00 +16°C° 0.2 mm 3 mps 735 mmHg 93%
    16:00 +16°C° 0.2 mm 3 mps 735 mmHg 92%
    17:00 +16°C° 0.2 mm 2 mps 736 mmHg 92%
    18:00 +16°C° 0.4 mm 2 mps 736 mmHg 94%
    19:00 +15°C° 0.4 mm 2 mps 736 mmHg 96%
    20:00 +14°C° 0.4 mm 2 mps 735 mmHg 98%
    21:00 +14°C° 0.3 mm 2 mps 736 mmHg 98%
    22:00 +13°C° 0.3 mm 3 mps 736 mmHg 98%
    23:00 +13°C° 0.3 mm 3 mps 736 mmHg 98%

    Pasado mañana, 19 Julio, Viernes

    Tiempo Temperatura Precipitaciones Viento Presión Humedad
    00:00 +13°C° 1.1 mm 3 mps 736 mmHg 98%
    01:00 +13°C° 1.1 mm 4 mps 736 mmHg 97%
    02:00 +14°C° 1.1 mm 4 mps 736 mmHg 97%
    03:00 +14°C° 0.4 mm 4 mps 736 mmHg 97%
    04:00 +14°C° 0.4 mm 5 mps 736 mmHg 97%
    05:00 +14°C° 0.4 mm 5 mps 737 mmHg 97%
    06:00 +14°C° 0.2 mm 5 mps 737 mmHg 96%
    07:00 +14°C° 0.2 mm 5 mps 737 mmHg 96%
    08:00 +14°C° 0.2 mm 6 mps 737 mmHg 95%
    09:00 +14°C° 0.2 mm 5 mps 738 mmHg 94%
    10:00 +14°C° 0.2 mm 5 mps 738 mmHg 94%
    11:00 +14°C° 0.2 mm 5 mps 739 mmHg 93%
    12:00 +15°C° 0.5 mm 5 mps 739 mmHg 91%
    13:00 +16°C° 0.5 mm 6 mps 739 mmHg 89%
    14:00 +16°C° 0.5 mm 6 mps 739 mmHg 87%
    15:00 +16°C° 0.2 mm 6 mps 740 mmHg 88%
    16:00 +16°C° 0.2 mm 5 mps 740 mmHg 89%
    17:00 +15°C° 0.2 mm 5 mps 740 mmHg 89%
    18:00 +15°C° 0 mm 4 mps 740 mmHg 89%
    19:00 +16°C° 0 mm 3 mps 741 mmHg 90%
    20:00 +16°C° 0 mm 3 mps 741 mmHg 90%
    21:00 +14°C° 0 mm 3 mps 741 mmHg 90%
    22:00 +14°C° 0 mm 3 mps 741 mmHg 91%
    23:00 +14°C° 0 mm 3 mps 742 mmHg 91%

    20 Julio, Sábado

    Tiempo Temperatura Precipitaciones Viento Presión Humedad
    00:00 +13°C° 0 mm 3 mps 742 mmHg 92%
    01:00 +13°C° 0 mm 3 mps 742 mmHg 94%
    02:00 +12°C° 0 mm 3 mps 742 mmHg 96%
    03:00 +12°C° 0 mm 3 mps 742 mmHg 96%
    04:00 +12°C° 0 mm 3 mps 742 mmHg 95%
    05:00 +12°C° 0 mm 3 mps 743 mmHg 95%
    06:00 +14°C° 0 mm 3 mps 743 mmHg 90%
    07:00 +15°C° 0 mm 4 mps 743 mmHg 84%
    08:00 +18°C° 0 mm 4 mps 744 mmHg 78%
    09:00 +18°C° 0.2 mm 4 mps 744 mmHg 78%
    10:00 +19°C° 0.2 mm 5 mps 744 mmHg 77%
    11:00 +20°C° 0.2 mm 5 mps 744 mmHg 76%
    12:00 +20°C° 0.6 mm 5 mps 745 mmHg 77%
    13:00 +20°C° 0.6 mm 4 mps 745 mmHg 79%
    14:00 +20°C° 0.6 mm 4 mps 745 mmHg 81%
    15:00 +20°C° 0.4 mm 4 mps 745 mmHg 80%
    16:00 +20°C° 0.4 mm 4 mps 745 mmHg 80%
    17:00 +20°C° 0.4 mm 4 mps 745 mmHg 79%
    18:00 +19°C° 0.1 mm 3 mps 745 mmHg 84%
    19:00 +18°C° 0.1 mm 2 mps 746 mmHg 88%
    20:00 +16°C° 0.1 mm 2 mps 746 mmHg 92%
    21:00 +16°C° 0 mm 2 mps 746 mmHg 93%
    22:00 +15°C° 0 mm 2 mps 746 mmHg 94%
    23:00 +14°C° 0 mm 2 mps 746 mmHg 95%

    21 Julio, Domingo

    Tiempo Temperatura Precipitaciones Viento Presión Humedad
    00:00 +14°C° 0 mm 2 mps 746 mmHg 96%
    01:00 +14°C° 0 mm 2 mps 746 mmHg 96%
    02:00 +13°C° 0 mm 2 mps 746 mmHg 97%
    03:00 +13°C° 0 mm 2 mps 747 mmHg 97%
    04:00 +13°C° 0 mm 2 mps 747 mmHg 97%
    05:00 +13°C° 0 mm 2 mps 747 mmHg 97%
    06:00 +15°C° 0 mm 2 mps 747 mmHg 92%
    07:00 +16°C° 0 mm 2 mps 747 mmHg 87%
    08:00 +18°C° 0 mm 2 mps 747 mmHg 82%
    09:00 +19°C° 0 mm 2 mps 747 mmHg 76%
    10:00 +20°C° 0 mm 2 mps 747 mmHg 70%
    11:00 +21°C° 0 mm 2 mps 747 mmHg 63%
    12:00 +22°C° 0.1 mm 3 mps 747 mmHg 64%
    13:00 +22°C° 0.1 mm 3 mps 747 mmHg 65%
    14:00 +22°C° 0.1 mm 3 mps 747 mmHg 66%
    15:00 +22°C° 0.1 mm 3 mps 747 mmHg 67%
    16:00 +22°C° 0.1 mm 3 mps 747 mmHg 69%
    17:00 +22°C° 0.1 mm 3 mps 747 mmHg 70%
    18:00 +20°C° 0 mm 2 mps 747 mmHg 76%
    19:00 +18°C° 0 mm 2 mps 747 mmHg 83%
    20:00 +18°C° 0 mm 1 mps 747 mmHg 89%
    21:00 +16°C° 0 mm 1 mps 747 mmHg 90%
    22:00 +15°C° 0 mm 1 mps 747 mmHg 91%
    23:00 +15°C° 0 mm 1 mps 747 mmHg 92%

    22 Julio, Lunes

    Tiempo Temperatura Precipitaciones Viento Presión Humedad
    00:00 +14°C° 0 mm 1 mps 747 mmHg 92%
    01:00 +14°C° 0 mm 1 mps 747 mmHg 93%
    02:00 +13°C° 0 mm 1 mps 747 mmHg 93%
    03:00 +13°C° 0 mm 1 mps 747 mmHg 94%
    04:00 +13°C° 0 mm 1 mps 747 mmHg 94%
    05:00 +13°C° 0 mm 1 mps 747 mmHg 95%
    06:00 +15°C° 0 mm 1 mps 747 mmHg 88%
    07:00 +18°C° 0 mm 1 mps 747 mmHg 81%
    08:00 +20°C° 0 mm 1 mps 747 mmHg 75%
    09:00 +22°C° 0 mm 1 mps 747 mmHg 67%
    10:00 +23°C° 0 mm 1 mps 747 mmHg 60%
    11:00 +24°C° 0 mm 1 mps 747 mmHg 53%
    12:00 +25°C° 0 mm 1 mps 747 mmHg 50%
    13:00 +25°C° 0 mm 2 mps 747 mmHg 47%
    14:00 +25°C° 0 mm 2 mps 747 mmHg 44%
    15:00 +25°C° 0 mm 2 mps 747 mmHg 48%
    16:00 +25°C° 0 mm 2 mps 746 mmHg 53%
    17:00 +25°C° 0 mm 2 mps 746 mmHg 57%
    18:00 +23°C° 0 mm 2 mps 746 mmHg 63%
    19:00 +19°C° 0 mm 2 mps 746 mmHg 69%
    20:00 +17°C° 0 mm 2 mps 746 mmHg 75%
    21:00 +17°C° 0 mm 2 mps 746 mmHg 77%
    22:00 +16°C° 0 mm 2 mps 746 mmHg 78%
    23:00 +15°C° 0 mm 2 mps 746 mmHg 80%
    Mostrar más